This demonstration page uses our WeatherBlox Daily Observations layout. Learn more.

Left ArrowRight Arrow

39.92423, -83.80882

Hourly Observations for August 12, 2022

Temp ( °F °C ) Dew Point ( °F °C ) Humidity (%) Winds ( mph kmh ) Pressure ( in mb ) Visibility ( mi km ) Precip ( " mm )
12:56 am 00:56 Clear N/A N/A N/A N 5 7 30.20 1023 10 16 0.00 0.00
1:56 am 01:56 Clear 60 15.6 N/A N/A NE 7 11 30.14 1021 10 16 0.00 0.00
2:56 am 02:56 Clear 60 15.6 N/A N/A NE 8 13 30.15 1021 10 16 0.00 0.00
3:56 am 03:56 Clear 58 14.4 58 14.4 100 100 NE 8 13 30.14 1021 10 16 0.00 0.00
4:56 am 04:56 Partly Cloudy 58 14.4 58 14.4 100 100 NE 8 13 30.15 1021 10 16 0.00 0.00
5:56 am 05:56 Clear 54 12.2 N/A N/A NNE 6 9 30.16 1021 10 16 0.00 0.00
6:56 am 06:56 Sunny 57 13.9 N/A N/A NNE 8 13 30.18 1022 10 16 0.00 0.00
7:56 am 07:56 Sunny 59 15 57 13.9 93 93 NE 7 11 30.19 1023 10 16 0.00 0.00
8:56 am 08:56 Sunny 63 17.2 56 13.3 78 78 NE 9 15 30.20 1023 10 16 0.00 0.00
9:56 am 09:56 Sunny 67 19.4 59 15 76 76 NE 12 19 30.21 1023 10 16 0.00 0.00
10:56 am 10:56 Partly Cloudy 70 21.1 58 14.4 66 66 NNE 13 20 30.21 1023 10 16 0.00 0.00
11:56 am 11:56 Partly Cloudy 72 22.2 57 13.9 59 59 E 10 17 30.22 1023 10 16 0.00 0.00
12:56 pm 12:56 Partly Cloudy 73 22.8 57 13.9 57 57 NNE 8 13 30.19 1022 10 16 0.00 0.00
1:56 pm 13:56 Partly Cloudy 75 23.9 57 13.9 54 54 ENE 9 15 30.20 1023 10 16 0.00 0.00
2:56 pm 14:56 Mostly Sunny 76 24.4 56 13.3 50 50 ENE 8 13 30.21 1023 10 16 0.00 0.00
3:56 pm 15:56 Mostly Sunny 75 23.9 56 13.3 51 51 NE 7 11 30.18 1022 10 16 0.00 0.00
4:56 pm 16:56 Sunny 76 24.4 55 12.8 48 48 NE 13 20 30.16 1021 10 16 0.00 0.00
5:56 pm 17:56 Sunny 73 22.8 56 13.3 55 55 ENE 6 9 30.16 1022 10 16 0.00 0.00
6:56 pm 18:56 Mostly Sunny 72 22.2 57 13.9 59 59 NE 7 11 30.16 1021 10 16 0.00 0.00
7:56 pm 19:56 Sunny 70 21.1 58 14.4 66 66 NE 6 9 30.16 1021 10 16 0.00 0.00
8:56 pm 20:56 Clear 66 18.9 57 13.9 73 73 N 3 6 30.15 1021 10 16 0.00 0.00
9:56 pm 21:56 Clear 63 17.2 60 15.6 90 90 N 6 9 30.18 1022 10 16 0.00 0.00
10:56 pm 22:56 Clear 61 16.1 60 15.6 97 97 NE 5 7 30.18 1022 10 16 0.00 0.00
11:56 pm 23:56 Clear 59 15 59 15 100 100 ENE 5 7 30.19 1022 10 16 0.00 0.00

Powered by AerisWeather